Weather History for KBAX - April, 2014

Change the Weather History Date:

Tuesday, April 22, 2014

  Actual Average (KP58) Record (KP58)
Temperature  
Mean Temperature 46 °F -  
Max Temperature 56 °F 50 °F 81 °F (2007)
Min Temperature 37 °F 35 °F 30 °F (2002)
Degree Days  
Heating Degree Days 18    
Moisture  
Dew Point 39 °F    
Average Humidity 81    
Maximum Humidity 97    
Minimum Humidity 70    
Precipitation  
Precipitation 0.00 in - - ()
Sea Level Pressure  
Sea Level Pressure 29.77 in    
Wind  
Wind Speed 13 mph (NW)    
Max Wind Speed 22 mph    
Max Gust Speed 28 mph    
Visibility 9 miles    
Events Rain    
Averages and records for this station are not official NWS values.
T = Trace of Precipitation, MM = Missing Value Source: NWS Daily Summary

Daily Weather History Graph

Daily Weather History Graph

Search for Another Location

Airport or City:

Trip Planner

Search our weather history database for the weather conditions in past years. The results will help you decide how hot, cold, wet, or windy it might be!

Date:

Astronomy

Apr. 22, 2014 Rise Set
Actual Time 6:37 AM EDT 8:24 PM EDT
Civil Twilight 6:07 AM EDT 8:54 PM EDT
Nautical Twilight 5:29 AM EDT 9:32 PM EDT
Astronomical Twilight 4:49 AM EDT 10:12 PM EDT
Moon 2:39 AM EDT (4/22) 1:10 PM EDT (4/22)
Length of Visible Light 14h 47m
Length of Day
13h 46m
Last Quarter, 46% of the Moon is Illuminated
Apr 22
Last Quarter
Apr 29
New
May 6
First Quarter
May 14
Full
May 21
Last Quarter

Hourly Weather History & Observations

Time (EDT) Temp. Windchill Dew Point Humidity Pressure Visibility Wind Dir Wind Speed Gust Speed Precip Events Conditions
12:17 AM 56.1 °F - 55.2 °F 97% 29.71 in 4.0 mi WSW 9.2 mph - N/A Rain Light Rain
12:37 AM 56.3 °F - 55.4 °F 97% 29.70 in 5.0 mi WSW 10.4 mph - N/A Rain Rain
12:57 AM 56.3 °F - 55.4 °F 97% 29.70 in 5.0 mi WSW 11.5 mph - N/A Rain Rain
1:17 AM 56.3 °F - 55.4 °F 97% 29.69 in 4.0 mi WSW 10.4 mph - N/A Rain Rain
1:37 AM 56.3 °F - 55.4 °F 97% 29.68 in 4.0 mi WSW 10.4 mph - N/A   Overcast
1:57 AM 56.3 °F - 55.4 °F 97% 29.68 in 3.0 mi West 9.2 mph - N/A Rain Rain
2:17 AM 56.3 °F - 55.4 °F 97% 29.67 in 3.0 mi West 9.2 mph - N/A   Light Drizzle
2:37 AM 56.3 °F - 55.4 °F 97% 29.67 in 3.0 mi West 10.4 mph - N/A   Overcast
2:57 AM 56.1 °F - 55.0 °F 96% 29.66 in 3.0 mi West 9.2 mph - N/A   Overcast
3:18 AM 55.9 °F - 54.9 °F 96% 29.66 in 3.0 mi West 10.4 mph 16.1 mph N/A   Overcast
3:37 AM 55.8 °F - 54.5 °F 96% 29.65 in 4.0 mi WNW 12.7 mph 18.4 mph N/A   Overcast
3:57 AM 54.9 °F - 53.1 °F 94% 29.66 in 5.0 mi North 17.3 mph 23.0 mph N/A   Overcast
4:17 AM 52.9 °F - 50.4 °F 91% 29.66 in 7.0 mi North 20.7 mph 24.2 mph N/A   Overcast
4:37 AM 51.3 °F - 49.3 °F 93% 29.67 in 7.0 mi North 17.3 mph 20.7 mph N/A   Overcast
4:57 AM 50.0 °F - 48.2 °F 94% 29.67 in 5.0 mi North 12.7 mph 18.4 mph N/A   Overcast
5:17 AM 48.9 °F - 47.5 °F 95% 29.68 in 4.0 mi NNW 17.3 mph 23.0 mph N/A   Unknown
5:37 AM 47.3 °F - 45.9 °F 95% 29.68 in 7.0 mi NNW 10.4 mph - N/A   Overcast
6:17 AM 45.5 °F 39.2 °F 43.5 °F 93% 29.70 in 10.0 mi NNW 13.8 mph - N/A   Overcast
6:37 AM 44.1 °F 37.4 °F 41.7 °F 91% 29.70 in 10.0 mi NNW 13.8 mph 19.6 mph N/A   Overcast
6:57 AM 43.2 °F 36.6 °F 40.8 °F 91% 29.71 in 10.0 mi NNW 12.7 mph - N/A   Overcast
7:17 AM 42.4 °F 36.5 °F 39.2 °F 88% 29.72 in 10.0 mi NNW 10.4 mph - N/A   Overcast
7:37 AM 41.9 °F 35.4 °F 37.8 °F 85% 29.73 in 10.0 mi NW 11.5 mph 24.2 mph N/A   Overcast
7:57 AM 41.0 °F 32.5 °F 36.5 °F 84% 29.74 in 10.0 mi NW 17.3 mph 20.7 mph N/A   Mostly Cloudy
8:17 AM 41.9 °F 34.6 °F 36.9 °F 82% 29.74 in 10.0 mi NW 13.8 mph 19.6 mph N/A   Mostly Cloudy
8:38 AM 41.5 °F 34.6 °F 36.3 °F 82% 29.74 in 10.0 mi NW 12.7 mph 20.7 mph N/A   Overcast
8:57 AM 41.7 °F 34.4 °F 35.4 °F 78% 29.75 in 10.0 mi WNW 13.8 mph 18.4 mph N/A   Overcast
9:17 AM 41.4 °F 33.6 °F 34.9 °F 78% 29.75 in 10.0 mi WNW 15.0 mph 21.9 mph N/A   Overcast
9:38 AM 40.3 °F 32.2 °F 33.8 °F 78% 29.75 in 10.0 mi WNW 15.0 mph 23.0 mph N/A   Overcast
9:57 AM 39.7 °F 31.5 °F 33.3 °F 78% 29.75 in 10.0 mi WNW 15.0 mph 26.5 mph N/A   Overcast
10:17 AM 39.6 °F 31.3 °F 32.9 °F 77% 29.76 in 10.0 mi NW 15.0 mph 21.9 mph N/A   Overcast
10:38 AM 39.9 °F 32.5 °F 32.9 °F 76% 29.75 in 10.0 mi WNW 12.7 mph 24.2 mph N/A   Overcast
10:57 AM 41.0 °F 33.1 °F 33.1 °F 73% 29.75 in 10.0 mi WNW 15.0 mph 21.9 mph N/A   Overcast
11:17 AM 41.7 °F 33.7 °F 33.3 °F 72% 29.75 in 10.0 mi WNW 16.1 mph 24.2 mph N/A   Overcast
11:38 AM 43.0 °F 35.4 °F 33.8 °F 70% 29.75 in 10.0 mi WNW 16.1 mph 23.0 mph N/A   Overcast
11:57 AM 43.2 °F 36.2 °F 34.0 °F 70% 29.75 in 10.0 mi WNW 13.8 mph 24.2 mph N/A   Overcast
12:17 PM 43.0 °F 36.4 °F 34.0 °F 71% 29.75 in 10.0 mi WNW 12.7 mph 21.9 mph N/A   Overcast
12:38 PM 43.3 °F 36.8 °F 34.0 °F 70% 29.74 in 10.0 mi WNW 12.7 mph 20.7 mph N/A   Overcast
12:57 PM 43.2 °F 35.9 °F 34.0 °F 70% 29.75 in 10.0 mi West 15.0 mph 23.0 mph N/A   Overcast
1:17 PM 42.8 °F 34.5 °F 34.2 °F 72% 29.75 in 10.0 mi WNW 18.4 mph 26.5 mph N/A   Overcast
1:37 PM 43.3 °F 35.5 °F 34.2 °F 70% 29.75 in 10.0 mi WNW 17.3 mph 26.5 mph N/A   Overcast
1:57 PM 43.3 °F 35.5 °F 34.3 °F 71% 29.75 in 10.0 mi WNW 17.3 mph 27.6 mph N/A   Overcast
2:17 PM 43.5 °F 35.5 °F 34.7 °F 71% 29.75 in 10.0 mi WNW 18.4 mph 24.2 mph N/A   Overcast
2:37 PM 43.0 °F 34.0 °F 34.5 °F 72% 29.76 in 10.0 mi NW 21.9 mph 27.6 mph N/A   Overcast
2:57 PM 43.3 °F 35.0 °F 34.2 °F 70% 29.76 in 10.0 mi WNW 19.6 mph 25.3 mph N/A   Overcast
3:18 PM 42.6 °F 35.9 °F 33.4 °F 70% 29.76 in 10.0 mi WNW 12.7 mph - N/A   Overcast
3:37 PM 42.4 °F 34.7 °F 33.8 °F 71% 29.77 in 10.0 mi WNW 16.1 mph 26.5 mph N/A   Overcast
3:57 PM 42.4 °F 35.0 °F 33.8 °F 71% 29.77 in 10.0 mi WNW 15.0 mph 24.2 mph N/A   Overcast
4:18 PM 42.1 °F 33.9 °F 33.8 °F 72% 29.77 in 10.0 mi WNW 17.3 mph 23.0 mph N/A   Overcast
4:37 PM 41.9 °F 34.0 °F 33.8 °F 73% 29.78 in 10.0 mi WNW 16.1 mph 26.5 mph N/A   Overcast
4:58 PM 41.7 °F 33.1 °F 34.0 °F 74% 29.79 in 10.0 mi WNW 18.4 mph 24.2 mph N/A   Overcast
5:18 PM 41.0 °F 32.2 °F 33.4 °F 74% 29.80 in 10.0 mi NW 18.4 mph 25.3 mph N/A   Overcast
5:37 PM 40.5 °F 31.8 °F 34.0 °F 78% 29.81 in 10.0 mi NW 17.3 mph 24.2 mph N/A Rain Light Rain
5:58 PM 40.1 °F 32.0 °F 34.3 °F 80% 29.82 in 10.0 mi NW 15.0 mph 23.0 mph N/A Rain Light Rain
6:18 PM 40.1 °F 31.0 °F 34.0 °F 79% 29.82 in 10.0 mi NW 18.4 mph 27.6 mph N/A Rain Light Rain
6:37 PM 39.7 °F 30.6 °F 33.4 °F 78% 29.82 in 10.0 mi NW 18.4 mph 21.9 mph N/A Rain Light Rain
6:58 PM 39.4 °F 30.4 °F 33.6 °F 80% 29.83 in 10.0 mi NW 17.3 mph 25.3 mph N/A   Unknown
7:17 PM 39.7 °F 30.9 °F 33.4 °F 78% 29.84 in 10.0 mi NW 17.3 mph 24.2 mph N/A Rain Light Rain
7:37 PM 40.1 °F 30.7 °F 33.3 °F 77% 29.84 in 10.0 mi NW 19.6 mph 26.5 mph N/A   Overcast
7:58 PM 39.4 °F 30.7 °F 33.4 °F 79% 29.85 in 10.0 mi NW 16.1 mph 25.3 mph N/A   Overcast
8:17 PM 39.4 °F 29.8 °F 32.9 °F 78% 29.85 in 10.0 mi NW 19.6 mph 23.0 mph N/A   Overcast
8:37 PM 39.2 °F 30.5 °F 32.2 °F 76% 29.86 in 10.0 mi NW 16.1 mph 26.5 mph N/A   Overcast
8:58 PM 39.0 °F 29.9 °F 32.0 °F 76% 29.87 in 10.0 mi NW 17.3 mph 21.9 mph N/A   Overcast
9:18 PM 38.7 °F 29.8 °F 32.0 °F 77% 29.88 in 10.0 mi NW 16.1 mph 20.7 mph N/A Rain Light Rain
9:37 PM 38.5 °F 29.2 °F 32.0 °F 78% 29.89 in 10.0 mi NW 17.3 mph 21.9 mph N/A   Overcast
9:58 PM 38.3 °F 29.7 °F 31.8 °F 77% 29.90 in 10.0 mi NW 15.0 mph 21.9 mph N/A   Overcast
10:17 PM 37.9 °F 28.2 °F 31.1 °F 76% 29.91 in 10.0 mi NW 18.4 mph 25.3 mph N/A   Overcast
10:37 PM 37.8 °F 28.3 °F 31.3 °F 77% 29.91 in 10.0 mi NW 17.3 mph 21.9 mph N/A   Overcast
10:58 PM 37.4 °F 29.8 °F 31.6 °F 80% 29.92 in 10.0 mi NW 11.5 mph - N/A   Overcast
11:17 PM 37.4 °F 29.3 °F 31.6 °F 80% 29.92 in 10.0 mi NNW 12.7 mph - N/A   Overcast
11:38 PM 37.6 °F 29.6 °F 31.5 °F 79% 29.92 in 10.0 mi NNW 12.7 mph - N/A   Overcast
11:57 PM 37.4 °F 28.2 °F 31.3 °F 79% 29.92 in 10.0 mi NNW 16.1 mph 20.7 mph N/A   Overcast